Cloud_Cover
0 0 0 4 0 0 98 100 100 100 100 100 100 100 100 100 99 100 95 86 97 5 6 27 54 65 24 77 97 56 100 100 100 78 33 3 41 100 100 100 100 100 100 17 5
0 0 0 0 0 0 0 0 100 100 100 100 100 100 100 100 96 98 82 99 100 55 32 30 9 50 100 31 26 94 40 100 100 85 77 62 57 100 100 100 100 100 9 5 5
2 0 18 13 38 44 1 0 0 100 100 100 100 100 100 89 92 94 98 77 92 100 92 97 98 17 5 30 42 5 89 100 100 100 100 100 32 67 100 100 42 26 26 5 10
44 64 100 100 100 100 1 0 0 0 84 100 100 100 100 100 100 92 99 100 77 97 99 100 96 35 100 92 70 5 87 100 100 100 100 73 17 6 32 93 10 5 23 7 10
100 33 33 92 100 100 70 0 0 0 0 100 100 100 100 100 100 100 100 100 100 100 100 100 97 82 76 78 100 74 69 71 93 100 100 100 76 6 39 54 5 26 100 98 47
80 69 47 98 100 100 20 5 0 0 0 0 57 100 100 100 100 100 100 100 100 100 100 100 100 100 100 100 92 100 99 78 70 100 24 28 20 5 100 42 0 52 5 5 5
88 87 100 100 100 88 8 3 5 0 0 0 0 4 100 100 100 100 100 100 100 100 100 100 100 100 100 100 99 100 98 70 100 100 5 20 8 54 90 4 4 7 5 3 5
100 100 100 100 100 92 10 7 12 48 2 0 0 0 1 99 100 100 100 100 100 100 100 100 100 100 100 100 100 100 99 100 100 91 81 67 36 100 60 10 5 5 5 6 5
100 100 100 100 100 100 80 32 73 100 68 15 4 5 50 2 72 100 100 100 100 100 100 100 100 100 100 100 100 100 99 100 100 98 40 19 72 100 69 14 5 5 5 36 100
100 100 100 100 100 100 35 94 5 5 5 28 7 2 5 5 3 2 72 100 100 100 100 100 100 100 100 100 100 100 100 100 100 100 34 64 82 100 49 5 64 35 5 59 100
100 100 100 100 100 100 100 100 90 5 5 28 50 5 5 4 5 5 1 2 100 100 100 100 94 100 100 100 100 100 100 100 100 100 91 74 98 96 97 3 99 51 100 77 100
100 100 100 97 100 100 100 100 79 14 27 5 5 5 5 5 54 100 100 5 5 3 96 100 100 100 74 99 100 100 100 100 100 100 39 66 2 5 86 5 12 64 57 100 99
100 100 90 82 93 36 95 100 64 32 50 96 4 5 5 79 12 89 100 17 9 2 0 0 80 100 100 100 98 100 100 100 100 100 100 97 96 100 49 55 52 71 100 68 98
55 100 100 99 8 90 84 100 74 100 95 4 98 9 5 94 76 24 10 7 16 5 0 0 0 28 100 100 100 98 94 100 100 65 100 100 100 100 100 100 100 100 100 100 95
90 23 38 94 97 100 97 100 100 100 100 2 2 40 90 8 99 100 15 5 5 5 9 5 0 0 0 4 95 100 100 100 100 90 5 95 95 100 100 100 100 100 100 100 100
100 100 100 17 5 24 100 100 100 100 94 0 2 10 98 100 90 100 100 95 26 90 42 23 5 0 0 0 0 1 4 31 71 100 52 41 53 99 100 100 100 100 94 90 100
97 100 100 97 39 42 100 99 100 100 2 2 4 5 76 100 100 100 100 100 100 100 100 100 25 0 0 0 0 0 0 1 0 0 4 72 98 94 100 100 100 100 100 100 100
100 100 26 5 3 6 90 100 98 0 2 0 3 5 12 67 100 100 100 100 100 100 100 100 100 42 5 0 0 1 0 5 0 0 0 0 2 70 87 100 100 100 100 100 100
95 39 100 1 10 5 100 100 9 0 0 2 5 16 6 79 100 100 100 100 100 100 100 100 100 100 85 5 0 0 0 3 3 2 1 0 5 9 5 2 4 70 100 100 100
75 77 90 5 69 69 100 46 4 3 2 2 7 5 5 40 94 100 93 88 100 100 100 100 91 100 100 100 11 4 1 0 3 0 0 3 5 21 5 5 4 0 1 54 100
6 35 8 44 94 100 100 98 31 3 22 4 6 87 100 97 44 97 99 67 100 100 100 100 100 100 100 100 100 60 5 2 0 0 0 0 0 4 5 5 4 0 0 1 5
97 77 81 100 69 100 100 100 9 3 83 77 100 99 90 49 100 100 80 76 100 100 100 100 100 100 100 100 100 100 57 5 0 0 4 0 2 0 0 0 0 0 0 0 5
80 95 96 100 99 11 90 100 100 100 100 33 52 5 19 41 97 63 74 84 100 100 100 100 100 100 100 100 98 99 100 99 80 47 5 3 17 0 0 0 0 0 0 0 0
92 48 56 100 100 100 82 5 100 100 100 100 94 41 69 73 82 22 61 70 96 100 100 100 100 100 100 100 100 100 100 100 100 99 0 0 5 5 29 31 1 0 0 0 0
89 39 88 78 95 100 100 100 29 100 100 100 100 100 100 100 91 100 100 93 85 100 100 100 100 100 100 100 100 100 100 100 100 92 95 1 4 5 14 24 5 2 5 0 0
100 97 49 12 100 100 100 16 100 91 97 99 100 95 100 100 100 100 100 100 99 51 100 100 100 100 100 100 100 100 100 100 100 14 91 1 4 32 82 57 100 98 5 5 0
99 100 100 51 10 94 100 100 64 82 100 100 100 99 100 100 100 100 100 77 100 100 100 100 100 100 100 100 100 100 100 86 70 100 93 78 49 100 100 100 100 100 32 6 5